FW6790 Weather Reports


time (UTC)temp
C
wind
direction
speed
KPH
gust
KPH
rain 1hr
cm
rain 24hr
cm
rain mn
cm
humidity
%
barometer
mb
20260906140653 23 27 1.6 4.8 0.00 0.15 0.15 95 1012.6
20260906140147 23 211 0.0 3.2 0.00 0.15 0.15 94 1012.6
20260906135910 23 211 0.0 3.2 0.00 0.15 0.15 94 1012.6
20260906135640 23 211 0.0 3.2 0.00 0.15 0.15 94 1012.6
20260906135136 23 311 1.6 4.8 0.00 0.15 0.15 94 1012.7
20260906134629 23 155 1.6 4.8 0.00 0.15 0.15 94 1012.7
20260906134123 23 234 0.0 4.8 0.00 0.15 0.15 95 1012.9
20260906133617 23 246 0.0 4.8 0.00 0.15 0.15 95 1012.9
20260906133111 23 246 1.6 4.8 0.00 0.15 0.15 95 1012.8
20260906132832 23 190 1.6 3.2 0.00 0.15 0.15 95 1012.7
20260906132605 23 190 1.6 3.2 0.00 0.15 0.15 95 1012.7
20260906132059 23 189 1.6 3.2 0.00 0.15 0.15 95 1012.9
20260906131553 23 194 1.6 4.8 0.00 0.15 0.15 95 1013.0
20260906131047 23 289 1.6 4.8 0.00 0.15 0.15 95 1012.9
20260906130541 22 76 0.0 3.2 0.00 0.15 0.15 95 1012.7
20260906130035 22 217 0.0 0.0 0.00 0.15 0.15 95 1012.6
20260906125751 22 217 0.0 1.6 0.00 0.15 0.15 95 1012.5
20260906125633 22 217 0.0 1.6 0.00 0.15 0.15 95 1012.5
20260906125251 22 217 0.0 3.2 0.00 0.15 0.15 94 1012.5
20260906125023 22 217 0.0 3.2 0.00 0.15 0.15 94 1012.5
20260906124517 22 217 0.0 3.2 0.00 0.15 0.15 94 1012.4
20260906124010 22 217 0.0 1.6 0.00 0.15 0.15 94 1012.3
20260906123723 22 217 0.0 0.0 0.00 0.15 0.15 94 1012.3
20260906123609 22 217 0.0 0.0 0.00 0.15 0.15 94 1012.3
20260906122959 22 217 0.0 1.6 0.03 0.15 0.15 94 1012.2
20260906122717 22 217 1.6 3.2 0.03 0.15 0.15 93 1012.1
20260906122557 22 217 1.6 3.2 0.03 0.15 0.15 93 1012.1
20260906121947 22 217 1.6 4.8 0.03 0.15 0.15 93 1012.0
20260906121442 22 240 0.0 4.8 0.03 0.15 0.15 93 1012.1
20260906120940 21 174 0.0 3.2 0.03 0.15 0.15 93 1012.0
20260906120439 21 174 0.0 3.2 0.05 0.15 0.15 92 1012.0
20260906120306 22 174 0.0 3.2 0.08 0.15 0.15 92 1012.0
20260906120157 22 174 0.0 3.2 0.08 0.15 0.15 92 1012.0
20260906115655 22 174 0.0 3.2 0.10 0.15 0.15 92 1011.8
20260906115540 22 174 0.0 3.2 0.10 0.15 0.15 92 1011.8
20260906114933 22 174 1.6 3.2 0.13 0.15 0.15 91 1011.8
20260906114434 22 174 1.6 3.2 0.13 0.15 0.15 91 1011.8
20260906113934 22 174 1.6 3.2 0.13 0.15 0.15 91 1011.9
20260906113431 22 174 1.6 3.2 0.13 0.15 0.15 92 1012.0
20260906112930 22 198 0.0 3.2 0.13 0.13 0.13 92 1012.0
20260906112427 22 198 1.6 4.8 0.13 0.13 0.13 92 1012.0
20260906112148 22 198 3.2 4.8 0.13 0.13 0.13 91 1012.0
20260906112029 22 198 3.2 4.8 0.13 0.13 0.13 91 1012.0
20260906111423 22 188 1.6 4.8 0.13 0.13 0.13 91 1012.0
20260906110921 23 201 0.0 1.6 0.13 0.13 0.13 91 1012.2
20260906110422 23 201 0.0 1.6 0.10 0.10 0.10 91 1012.1
20260906105919 23 201 1.6 4.8 0.08 0.08 0.08 91 1012.0
20260906105418 23 201 3.2 4.8 0.05 0.05 0.05 91 1011.8
20260906104915 23 205 1.6 3.2 0.03 0.03 0.05 90 1011.8
20260906104644 23 187 1.6 4.8 0.03 0.03 0.03 90 1012.0
20260906104415 23 187 1.6 4.8 0.03 0.03 0.03 90 1012.0
20260906103915 23 190 1.6 4.8 0.03 0.03 0.03 90 1012.0
20260906103413 23 189 1.6 6.4 0.03 0.03 0.03 89 1012.0
20260906103134 23 151 3.2 6.4 0.00 0.00 0.00 89 1012.0
20260906103017 23 151 3.2 6.4 0.00 0.00 0.00 89 1012.0
20260906102413 23 167 3.2 6.4 0.00 0.00 0.00 88 1012.0
20260906101913 23 186 1.6 6.4 0.00 0.00 0.00 88 1012.1
20260906101638 23 255 1.6 4.8 0.00 0.00 0.00 87 1012.3
20260906101413 23 255 1.6 4.8 0.00 0.00 0.00 87 1012.3
20260906100913 23 49 1.6 14.5 0.00 0.00 0.00 87 1012.5
20260906100412 23 26 3.2 14.5 0.00 0.00 0.00 87 1012.6
20260906095913 23 341 4.8 16.1 0.00 0.00 0.00 87 1012.9
20260906095413 23 32 6.4 16.1 0.00 0.00 0.00 86 1013.0
20260906095142 24 40 6.4 16.1 0.00 0.00 0.00 85 1013.1
20260906095017 24 40 6.4 16.1 0.00 0.00 0.00 85 1013.1
20260906094634 24 335 6.4 17.7 0.00 0.00 0.00 85 1013.1
20260906094517 24 335 6.4 17.7 0.00 0.00 0.00 85 1013.1
20260906094140 24 59 6.4 17.7 0.00 0.00 0.00 84 1013.0
20260906094017 24 59 6.4 17.7 0.00 0.00 0.00 84 1013.0
20260906093635 24 64 6.4 14.5 0.00 0.00 0.00 84 1012.9
20260906093517 24 64 6.4 14.5 0.00 0.00 0.00 84 1012.9
20260906093138 24 334 6.4 14.5 0.00 0.00 0.00 84 1012.8
20260906093018 24 334 6.4 14.5 0.00 0.00 0.00 84 1012.8
20260906092412 24 10 6.4 12.9 0.00 0.00 0.00 85 1012.7
20260906091913 24 24 4.8 11.3 0.00 0.00 0.00 86 1012.6
20260906091413 24 19 3.2 9.7 0.00 0.00 0.00 88 1012.6
20260906090913 24 21 3.2 6.4 0.00 0.00 0.00 89 1012.4
20260906090634 24 40 1.6 4.8 0.00 0.00 0.00 88 1012.1
20260906090517 24 40 1.6 4.8 0.00 0.00 0.00 88 1012.1
20260906090015 24 355 1.6 4.8 0.00 0.00 0.00 88 1012.0
20260906085410 24 171 0.0 1.6 0.00 0.00 0.00 88 1012.0
20260906084904 24 171 0.0 3.2 0.00 0.00 0.00 88 1012.0
20260906084358 24 171 1.6 4.8 0.00 0.00 0.00 88 1011.8
20260906083852 24 171 0.0 4.8 0.00 0.00 0.00 87 1011.8
20260906083608 24 139 0.0 1.6 0.00 0.00 0.00 87 1011.8
20260906083450 24 139 0.0 1.6 0.00 0.00 0.00 87 1011.8
20260906083101 24 139 0.0 1.6 0.00 0.00 0.00 87 1011.9
20260906082944 24 139 0.0 1.6 0.00 0.00 0.00 87 1011.9
20260906082334 24 139 0.0 3.2 0.00 0.00 0.00 87 1011.9
20260906081828 25 139 0.0 3.2 0.00 0.00 0.00 86 1011.7
20260906081547 25 139 0.0 3.2 0.00 0.00 0.00 85 1011.8
20260906081427 25 139 0.0 3.2 0.00 0.00 0.00 85 1011.8
20260906080816 25 81 0.0 3.2 0.00 0.00 0.00 85 1011.7
20260906080310 25 81 1.6 6.4 0.00 0.00 0.00 85 1011.7
20260906075808 25 51 1.6 6.4 0.00 0.00 0.00 84 1011.9
20260906075307 25 73 1.6 6.4 0.00 0.00 0.00 85 1011.9
20260906074806 25 52 1.6 8.0 0.00 0.00 0.00 85 1012.0
20260906074246 25 57 0.0 8.0 0.00 0.00 0.00 87 1012.0
20260906073740 25 73 1.6 11.3 0.00 0.00 0.00 87 1011.9
20260906073455 25 5 1.6 11.3 0.00 0.00 0.00 88 1012.0
20260906073234 25 5 1.6 11.3 0.00 0.00 0.00 88 1012.0
20260906072953 26 145 0.0 3.2 0.00 0.00 0.00 89 1012.0
20260906072832 26 145 0.0 3.2 0.00 0.00 0.00 89 1012.0
20260906072448 26 144 0.0 3.2 0.00 0.00 0.00 89 1012.0
20260906072327 26 144 0.0 3.2 0.00 0.00 0.00 89 1012.0
20260906071715 26 196 0.0 0.0 0.00 0.00 0.00 89 1011.9
20260906071210 26 196 0.0 0.0 0.00 0.00 0.00 89 1011.9
20260906070704 26 196 0.0 1.6 0.00 0.00 0.00 88 1011.9
20260906070158 26 196 0.0 3.2 0.00 0.00 0.00 88 1011.8
20260906065651 26 196 0.0 3.2 0.00 0.00 0.00 88 1011.8
20260906065146 26 196 0.0 0.0 0.00 0.00 0.00 88 1011.8
20260906064640 26 196 0.0 0.0 0.00 0.00 0.00 88 1011.7
20260906064134 26 196 0.0 3.2 0.00 0.00 0.00 88 1011.8
20260906063852 26 196 0.0 3.2 0.00 0.00 0.00 87 1011.8
20260906063628 26 196 0.0 3.2 0.00 0.00 0.00 87 1011.8
20260906063339 26 226 0.0 3.2 0.00 0.00 0.00 87 1011.9
20260906063227 26 226 0.0 3.2 0.00 0.00 0.00 87 1011.9
20260906062616 26 302 1.6 3.2 0.00 0.00 0.00 87 1011.9
20260906062110 26 338 1.6 3.2 0.00 0.00 0.00 87 1012.0
20260906061604 26 61 0.0 3.2 0.00 0.00 0.00 87 1011.9
20260906061316 26 61 0.0 3.2 0.00 0.00 0.00 87 1011.7
20260906061203 26 61 0.0 3.2 0.00 0.00 0.00 87 1011.7
20260906060552 26 61 1.6 3.2 0.00 0.00 0.00 87 1011.8
20260906060046 26 73 1.6 3.2 0.00 0.00 0.00 87 1011.8
20260906055759 26 355 1.6 6.4 0.00 0.00 0.00 87 1011.9
20260906055644 26 355 1.6 6.4 0.00 0.00 0.00 87 1011.9
20260906055034 26 44 1.6 6.4 0.00 0.00 0.00 87 1011.9
20260906054744 26 13 1.6 6.4 0.00 0.00 0.00 87 1011.9
20260906054632 26 13 1.6 6.4 0.00 0.00 0.00 87 1011.9
20260906054022 26 355 1.6 4.8 0.00 0.00 0.00 87 1012.0
20260906053741 26 44 3.2 8.0 0.00 0.00 0.00 87 1012.0
20260906053516 26 44 3.2 8.0 0.00 0.00 0.00 87 1012.0
20260906053010 26 311 1.6 8.0 0.00 0.00 0.00 87 1012.0
20260906052504 26 59 1.6 8.0 0.00 0.00 0.00 87 1012.0
20260906051958 26 193 1.6 8.0 0.00 0.00 0.00 87 1012.0
20260906051452 26 126 1.6 3.2 0.00 0.00 0.00 87 1012.0
20260906050946 26 224 1.6 6.4 0.00 0.00 0.00 87 1012.3
20260906050440 26 171 1.6 6.4 0.00 0.00 0.00 87 1012.3
20260906045935 26 155 1.6 6.4 0.00 0.00 0.00 87 1012.5
20260906045429 26 103 0.0 1.6 0.00 0.00 0.00 87 1012.4
20260906044923 26 103 0.0 0.0 0.00 0.00 0.00 87 1012.3
20260906044417 26 103 0.0 1.6 0.00 0.00 0.00 86 1012.6
20260906043911 26 103 0.0 1.6 0.00 0.00 0.00 86 1012.4
20260906043406 26 57 0.0 3.2 0.00 0.00 0.00 86 1012.5
20260906043122 26 57 0.0 3.2 0.00 0.00 0.00 86 1012.5
20260906043003 26 57 0.0 3.2 0.00 0.00 0.00 86 1012.5
20260906042612 26 142 1.6 3.2 0.00 0.00 0.00 85 1012.4
20260906042457 26 142 1.6 3.2 0.00 0.00 0.00 85 1012.4
20260906042114 26 142 1.6 3.2 0.00 0.00 0.00 85 1012.4
20260906041847 26 142 1.6 3.2 0.00 0.00 0.00 85 1012.4
20260906041606 27 155 0.0 1.6 0.00 0.00 0.00 85 1012.5
20260906041445 27 155 0.0 1.6 0.00 0.00 0.00 85 1012.5
20260906040835 27 155 0.0 1.6 0.00 0.00 0.00 85 1012.5
20260906040555 27 155 0.0 1.6 0.00 0.00 0.00 85 1012.5
20260906040434 27 155 0.0 1.6 0.00 0.00 0.00 85 1012.5
20260906035823 27 155 0.0 1.6 0.00 0.00 0.00 84 1012.4
20260906035543 27 155 0.0 1.6 0.00 0.00 0.00 84 1012.7
20260906035317 27 155 0.0 1.6 0.00 0.00 0.00 84 1012.7
20260906035033 27 155 0.0 1.6 0.00 0.00 0.00 84 1012.7
20260906034916 27 155 0.0 1.6 0.00 0.00 0.00 84 1012.7
20260906034305 27 155 0.0 3.2 0.00 0.00 0.00 84 1012.8
20260906033759 27 155 1.6 6.4 0.00 0.00 0.00 84 1012.8
20260906033259 27 336 3.2 8.0 0.00 0.00 0.00 84 1012.9
20260906032759 27 195 1.6 8.0 0.00 0.00 0.00 84 1012.9
20260906032259 27 169 1.6 6.4 0.00 0.00 0.00 85 1013.0
20260906032020 27 261 3.2 11.3 0.00 0.00 0.00 85 1013.0
20260906031759 27 261 3.2 11.3 0.00 0.00 0.00 85 1013.0
20260906031523 26 193 1.6 11.3 0.00 0.00 0.00 85 1013.1
20260906031259 26 193 1.6 11.3 0.00 0.00 0.00 85 1013.1
20260906030800 26 143 0.0 4.8 0.00 0.00 0.00 85 1013.1
20260906030259 26 187 0.0 6.4 0.00 0.00 0.00 85 1012.8
20260906030025 26 86 0.0 6.4 0.00 0.00 0.00 85 1012.8
20260906025759 26 86 0.0 6.4 0.00 0.00 0.00 85 1012.8
20260906025259 26 188 0.0 3.2 0.00 0.00 0.00 84 1012.2
20260906025023 26 188 0.0 1.6 0.00 0.00 0.00 84 1012.2
20260906024757 26 188 0.0 1.6 0.00 0.00 0.00 84 1012.2
20260906024255 26 188 0.0 1.6 0.00 0.00 0.00 83 1012.0
20260906024023 26 188 0.0 0.0 0.00 0.00 0.00 83 1012.0
20260906023755 26 188 0.0 0.0 0.00 0.00 0.00 83 1012.0
20260906023256 26 188 0.0 0.0 0.00 0.00 0.00 82 1012.1
20260906022753 26 188 0.0 1.6 0.00 0.00 0.00 83 1012.0
20260906022253 26 188 1.6 3.2 0.00 0.00 0.00 83 1012.0
20260906021753 26 188 1.6 3.2 0.00 0.00 0.00 83 1012.1
20260906021523 27 188 1.6 3.2 0.00 0.00 0.00 83 1012.0
20260906021355 27 188 1.6 3.2 0.00 0.00 0.00 83 1012.0
20260906021016 27 188 1.6 3.2 0.00 0.00 0.00 82 1012.0
20260906020855 27 188 1.6 3.2 0.00 0.00 0.00 82 1012.0
20260906020251 27 188 1.6 3.2 0.00 0.00 0.00 82 1011.9
20260906015752 27 188 0.0 3.2 0.00 0.00 0.00 82 1011.8
20260906015256 27 188 0.0 1.6 0.00 0.00 0.00 81 1011.8
20260906014751 27 188 0.0 0.0 0.00 0.00 0.00 81 1011.8
20260906014251 27 188 0.0 0.0 0.00 0.00 0.00 81 1011.8
20260906013751 27 188 0.0 1.6 0.00 0.00 0.00 81 1011.7
20260906013252 27 188 0.0 1.6 0.00 0.00 0.00 81 1011.5
20260906012751 27 188 1.6 3.2 0.00 0.00 0.00 80 1011.4
20260906012251 27 188 1.6 3.2 0.00 0.00 0.00 81 1011.2
20260906012010 27 245 0.0 3.2 0.00 0.00 0.00 80 1011.2
20260906011851 27 245 0.0 3.2 0.00 0.00 0.00 80 1011.2
20260906011517 27 245 0.0 3.2 0.00 0.00 0.00 79 1011.0
20260906011247 27 245 0.0 3.2 0.00 0.00 0.00 79 1011.0
20260906011018 27 245 1.6 3.2 0.00 0.00 0.00 79 1010.9
20260906010747 27 245 1.6 3.2 0.00 0.00 0.00 79 1010.9
20260906010247 27 256 1.6 3.2 0.00 0.00 0.00 78 1010.8
20260906005747 27 211 1.6 3.2 0.00 0.00 0.00 77 1010.7
20260906005513 27 198 3.2 6.4 0.00 0.00 0.00 77 1010.7
20260906005351 27 198 3.2 6.4 0.00 0.00 0.00 77 1010.7
20260906004746 27 196 3.2 6.4 0.00 0.00 0.00 76 1010.6
20260906004247 28 180 1.6 4.8 0.00 0.00 0.00 76 1010.5
20260906003747 28 166 1.6 4.8 0.00 0.00 0.00 76 1010.6
20260906003246 28 166 1.6 4.8 0.00 0.00 0.00 75 1010.6
20260906002739 28 166 0.0 4.8 0.00 0.00 0.00 75 1010.5
20260906002233 28 166 0.0 0.0 0.00 0.00 0.00 74 1010.6
20260906001726 28 166 1.6 4.8 0.00 0.00 0.00 74 1010.5
20260906001220 28 166 3.2 4.8 0.00 0.00 0.00 74 1010.5
20260906000714 29 166 3.2 4.8 0.00 0.00 0.00 74 1010.6
20260906000208 29 166 3.2 4.8 0.00 0.00 0.00 73 1010.6
20260905235702 29 197 1.6 3.2 0.00 0.00 0.00 73 1010.6
20260905235156 30 191 1.6 3.2 0.00 0.00 0.00 72 1010.7
20260905234650 30 191 1.6 3.2 0.00 0.00 0.00 72 1010.7
20260905234422 30 191 1.6 3.2 0.00 0.00 0.00 71 1010.8
20260905234144 30 191 1.6 3.2 0.00 0.00 0.00 71 1010.8
20260905233637 31 191 1.6 3.2 0.00 0.00 0.00 69 1010.8
20260905233131 31 191 1.6 3.2 0.00 0.00 0.00 68 1010.8
20260905232624 31 191 1.6 3.2 0.00 0.00 0.00 68 1010.8
20260905232119 31 191 1.6 3.2 0.00 0.00 0.00 65 1010.8
20260905231613 32 191 1.6 3.2 0.00 0.00 0.00 64 1010.7
20260905231106 32 191 1.6 3.2 0.00 0.00 0.00 63 1010.6
20260905230822 33 191 1.6 3.2 0.00 0.00 0.00 61 1010.6
20260905230705 33 191 1.6 3.2 0.00 0.00 0.00 61 1010.6
20260905230054 33 191 1.6 3.2 0.00 0.00 0.00 59 1010.7
20260905225548 34 179 1.6 3.2 0.00 0.00 0.00 58 1010.7
20260905225042 34 178 1.6 3.2 0.00 0.00 0.00 58 1010.7
20260905224756 34 178 1.6 3.2 0.00 0.00 0.00 57 1010.7
20260905224641 34 178 1.6 3.2 0.00 0.00 0.00 57 1010.7
20260905224030 35 138 1.6 3.2 0.00 0.00 0.00 56 1010.7
20260905223524 35 157 1.6 4.8 0.00 0.00 0.00 56 1010.7
20260905223018 35 355 0.0 3.2 0.00 0.00 0.00 53 1010.5
20260905222838 35 355 1.6 3.2 0.00 0.00 0.00 53 1010.6
20260905222731 35 355 1.6 3.2 0.00 0.00 0.00 53 1010.6
20260905222006 35 297 1.6 3.2 0.00 0.00 0.00 51 1010.6
20260905221500 35 191 1.6 3.2 0.00 0.00 0.00 52 1010.6
20260905221226 35 191 1.6 3.2 0.00 0.00 0.00 55 1010.6
20260905221059 35 191 1.6 3.2 0.00 0.00 0.00 55 1010.6
20260905220811 35 191 3.2 4.8 0.00 0.00 0.00 54 1010.6
20260905220708 35 191 3.2 4.8 0.00 0.00 0.00 54 1010.6
20260905215942 36 200 3.2 4.8 0.00 0.00 0.00 54 1010.6
20260905215435 36 175 1.6 4.8 0.00 0.00 0.00 54 1010.6
20260905215156 36 175 0.0 3.2 0.00 0.00 0.00 52 1010.6
20260905214931 36 175 0.0 3.2 0.00 0.00 0.00 52 1010.6
20260905214424 36 53 3.2 12.9 0.00 0.00 0.00 49 1010.6
20260905213918 36 51 4.8 12.9 0.00 0.00 0.00 51 1010.5
20260905213647 36 22 1.6 8.0 0.00 0.00 0.00 50 1010.7
20260905213417 36 22 1.6 8.0 0.00 0.00 0.00 50 1010.7
20260905212915 36 292 1.6 4.8 0.00 0.00 0.00 49 1010.7
20260905212414 36 292 1.6 4.8 0.00 0.00 0.00 49 1010.7
20260905212118 36 334 1.6 4.8 0.00 0.00 0.00 47 1010.8
20260905211958 36 334 1.6 4.8 0.00 0.00 0.00 47 1010.8
20260905211348 36 296 1.6 3.2 0.00 0.00 0.00 49 1010.9
20260905210842 36 284 3.2 8.0 0.00 0.00 0.00 49 1010.9
20260905210336 35 355 4.8 11.3 0.00 0.00 0.00 49 1010.9
20260905205830 36 335 3.2 11.3 0.00 0.00 0.00 49 1010.9
20260905205648 36 346 3.2 6.4 0.00 0.00 0.00 48 1011.0
20260905205554 36 346 3.2 6.4 0.00 0.00 0.00 48 1011.0
20260905205050 35 165 3.2 6.4 0.00 0.00 0.00 48 1011.0
20260905204818 35 165 3.2 6.4 0.00 0.00 0.00 48 1011.0
20260905204312 35 75 3.2 11.3 0.00 0.00 0.00 49 1011.1
20260905203805 35 340 4.8 12.9 0.00 0.00 0.00 50 1011.1
20260905203300 35 324 3.2 12.9 0.00 0.00 0.00 50 1011.2
20260905202755 35 346 1.6 6.4 0.00 0.00 0.00 52 1011.1
20260905202352 35 143 1.6 6.4 0.00 0.00 0.00 51 1011.2
20260905202005 35 290 1.6 3.2 0.00 0.00 0.00 54 1011.2
20260905201742 35 290 1.6 3.2 0.00 0.00 0.00 54 1011.2
20260905201243 35 175 1.6 4.8 0.00 0.00 0.00 53 1011.3
20260905201011 35 63 3.2 6.4 0.00 0.00 0.00 51 1011.3
20260905200742 35 63 3.2 6.4 0.00 0.00 0.00 51 1011.3
20260905200242 35 18 3.2 8.0 0.00 0.00 0.00 50 1011.3
20260905195740 35 318 3.2 8.0 0.00 0.00 0.00 50 1011.3
20260905195240 35 190 3.2 6.4 0.00 0.00 0.00 57 1011.4
20260905194741 35 190 1.6 6.4 0.00 0.00 0.00 58 1011.5
20260905194507 35 161 1.6 6.4 0.00 0.00 0.00 48 1011.6
20260905193740 35 128 1.6 6.4 0.00 0.00 0.00 49 1011.6
20260905193239 35 105 1.6 6.4 0.00 0.00 0.00 50 1011.7
20260905192738 35 126 1.6 6.4 0.00 0.00 0.00 49 1011.8
20260905192236 35 80 1.6 6.4 0.00 0.00 0.00 49 1011.8
20260905191737 35 271 1.6 6.4 0.00 0.00 0.00 51 1011.8
20260905191338 35 5 3.2 6.4 0.00 0.00 0.00 49 1011.8
20260905190734 35 24 3.2 8.0 0.00 0.00 0.00 49 1011.9
20260905190235 36 343 1.6 8.0 0.00 0.00 0.00 49 1012.0
20260905185734 36 315 3.2 6.4 0.00 0.00 0.00 49 1012.1
20260905185234 35 28 3.2 9.7 0.00 0.00 0.00 48 1012.2
20260905184734 35 142 3.2 9.7 0.00 0.00 0.00 49 1012.2
20260905184234 35 225 1.6 6.4 0.00 0.00 0.00 49 1012.3
20260905183957 34 179 3.2 9.7 0.00 0.00 0.00 51 1012.5
20260905183734 34 179 3.2 9.7 0.00 0.00 0.00 51 1012.5
20260905183233 34 160 3.2 9.7 0.00 0.00 0.00 53 1012.5
20260905182952 34 27 3.2 9.7 0.00 0.00 0.00 53 1012.6
20260905182839 34 27 3.2 9.7 0.00 0.00 0.00 53 1012.6
20260905182234 34 340 3.2 9.7 0.00 0.00 0.00 55 1012.7
20260905181733 33 203 3.2 6.4 0.00 0.00 0.00 56 1012.8
20260905181234 33 211 3.2 6.4 0.00 0.00 0.00 62 1012.9
20260905180734 33 210 1.6 6.4 0.00 0.00 0.00 60 1013.0
20260905180234 33 114 1.6 6.4 0.00 0.00 0.00 58 1013.1
20260905175959 33 225 1.6 8.0 0.00 0.00 0.00 55 1013.2
20260905175839 33 225 1.6 8.0 0.00 0.00 0.00 55 1013.2
20260905175232 34 273 3.2 14.5 0.00 0.00 0.00 54 1013.2
20260905175003 34 36 4.8 14.5 0.00 0.00 0.00 54 1013.2
20260905174732 34 36 4.8 14.5 0.00 0.00 0.00 54 1013.2
20260905174602 34 201 3.2 9.7 0.00 0.00 0.00 55 1013.3
20260905174501 34 201 3.2 9.7 0.00 0.00 0.00 55 1013.3
20260905173732 33 111 3.2 6.4 0.00 0.00 0.00 56 1013.4
20260905173230 33 90 3.2 11.3 0.00 0.00 0.00 56 1013.5
20260905172730 33 300 4.8 11.3 0.00 0.00 0.00 57 1013.4
20260905172450 33 15 3.2 11.3 0.00 0.00 0.00 57 1013.5
20260905172334 33 15 3.2 11.3 0.00 0.00 0.00 57 1013.5
20260905171723 34 312 1.6 8.0 0.00 0.00 0.00 56 1013.5
20260905171438 33 115 3.2 8.0 0.00 0.00 0.00 57 1013.7
20260905171321 33 115 3.2 8.0 0.00 0.00 0.00 57 1013.7
20260905170711 33 158 3.2 6.4 0.00 0.00 0.00 57 1013.8
20260905170205 33 317 3.2 6.4 0.00 0.00 0.00 61 1013.8
20260905170021 33 181 1.6 11.3 0.00 0.00 0.00 60 1013.9
20260905165927 33 181 1.6 11.3 0.00 0.00 0.00 60 1013.9
20260905165421 33 15 3.2 11.3 0.00 0.00 0.00 58 1013.9
20260905165153 33 15 3.2 11.3 0.00 0.00 0.00 58 1013.9
20260905164647 33 193 4.8 14.5 0.00 0.00 0.00 59 1014.0
20260905164141 33 330 4.8 14.5 0.00 0.00 0.00 60 1014.0
20260905163635 33 297 3.2 8.0 0.00 0.00 0.00 61 1014.0
20260905163349 33 68 3.2 8.0 0.00 0.00 0.00 60 1014.1
20260905163233 33 68 3.2 8.0 0.00 0.00 0.00 60 1014.1
20260905162623 33 84 3.2 12.9 0.00 0.00 0.00 61 1014.1
20260905162118 32 350 3.2 12.9 0.00 0.00 0.00 60 1014.1
20260905161611 32 26 4.8 11.3 0.00 0.00 0.00 61 1014.1
20260905161105 32 26 4.8 11.3 0.00 0.00 0.00 60 1014.1
20260905160559 32 329 3.2 11.3 0.00 0.00 0.00 61 1014.1
20260905160315 32 28 3.2 11.3 0.00 0.00 0.00 60 1014.1
20260905160053 32 28 3.2 11.3 0.00 0.00 0.00 60 1014.1
20260905155547 32 0 3.2 6.4 0.00 0.00 0.00 64 1014.2
20260905155041 32 5 3.2 9.7 0.00 0.00 0.00 63 1014.2
20260905154535 31 40 3.2 9.7 0.00 0.00 0.00 64 1014.1
20260905154029 31 355 3.2 8.0 0.00 0.00 0.00 63 1014.2
20260905153524 31 45 3.2 6.4 0.00 0.00 0.00 65 1014.2
20260905153017 31 46 4.8 9.7 0.00 0.00 0.00 65 1014.2
20260905152615 31 0 4.8 11.3 0.00 0.00 0.00 65 1014.2
20260905152006 31 16 4.8 11.3 0.00 0.00 0.00 65 1014.3
20260905151459 30 23 3.2 11.3 0.00 0.00 0.00 66 1014.3
20260905150953 30 49 3.2 9.7 0.00 0.00 0.00 67 1014.2
20260905150447 30 291 3.2 12.9 0.00 0.00 0.00 69 1014.3
20260905145942 30 105 3.2 12.9 0.00 0.00 0.00 70 1014.3
20260905145657 29 81 3.2 8.0 0.00 0.00 0.00 70 1014.3
20260905145435 29 81 3.2 8.0 0.00 0.00 0.00 70 1014.3
20260905144929 29 42 3.2 6.4 0.00 0.00 0.00 71 1014.2
20260905144423 28 160 3.2 8.0 0.00 0.00 0.00 74 1014.3
20260905143917 28 21 3.2 8.0 0.00 0.00 0.00 75 1014.4
20260905143411 28 25 1.6 8.0 0.00 0.00 0.00 77 1014.4
20260905142905 27 50 1.6 4.8 0.00 0.00 0.00 80 1014.4
20260905142503 27 56 1.6 8.0 0.00 0.00 0.00 81 1014.4
20260905141852 27 355 1.6 8.0 0.00 0.00 0.00 83 1014.3
20260905141451 26 28 1.6 4.8 0.00 0.00 0.00 85 1014.3